Regional Weather Roundup
Issued by NWS Upton, NY

Home | Current Version | Previous Version | Text Only | Print | Product List | Glossary On
Versions: 1 2 3 4 5 6 7 8 9 10 11 12 13 14 15 16 17 18 19 20 21 22 23 24 25 26 27 28 29 30 31 32 33 34 35 36 37 38 39 40 41 42 43 44 45 46 47 48 49 50
473
ASUS41 KOKX 121504
RWROKX

REGIONAL WEATHER ROUNDUP
NATIONAL WEATHER SERVICE NEW YORK NY
1000 AM EST FRI FEB 12 2016

NOTE: "FAIR" INDICATES FEW OR NO CLOUDS BELOW 12,000 FEET WITH NO
SIGNIFICANT WEATHER AND/OR OBSTRUCTIONS TO VISIBILITY.

NYZ071-072-176-178-NJZ106-104-121600-
NEW YORK CITY METRO AREA


CITY           SKY/WX    TMP DP  RH WIND       PRES   REMARKS
CENTRAL PARK   SUNNY     19  -1  41 VRB5      30.25F WCI  12
LAGUARDIA APRT MOSUNNY   22   1  40 NW3       30.25F
KENNEDY INTL   MOSUNNY   22   0  38 CALM      30.26F
NEWARK/LIBERTY MOSUNNY   22   0  38 CALM      30.25F
BRNX BOT. GARD   N/A     21   0  39 W9        30.25F WCI  11
TETERBORO      SUNNY     20  -2  38 CALM      30.24F
$$

NYZ177-179-078>081-121600-
LONG ISLAND NEW YORK

CITY           SKY/WX    TMP DP  RH WIND       PRES   REMARKS
FARMINGDALE    SUNNY     20   1  43 NW5       30.25F WCI  13
ISLIP          MOSUNNY   21   3  45 SW7       30.24F WCI  12
SHIRLEY        MIX PCPN  20   3  48 W5        30.25F WCI  13
RIVERHEAD        N/A     25   0  33 W3        30.23S
WESTHAMPTON    SUNNY     18   4  54 SW9       30.26F WCI   7
EAST HAMPTON   FAIR      19   5  54 SW8       30.24F WCI   9
MONTAUK POINT    N/A     22   7  52 W7        30.25S WCI  13
$$

NYZ052-065-067-121600-
HUDSON VALLEY

CITY           SKY/WX    TMP DP  RH WIND       PRES   REMARKS
WHITE PLAINS   SUNNY     18   0  45 NW5       30.19F WCI  11
NEWBURGH       PTSUNNY   16   5  62 W12       30.19F WCI   3
MONTGOMERY     SUNNY     18   3  52 SW8       30.18F WCI   8
POUGHKEEPSIE   SUNNY     19   1  45 VRB5      30.20F WCI  12
ALBANY         PTSUNNY   15   3  59 S7        30.16F WCI   5
$$

NJZ001-105-106-008-010-013-015-019>022-104-121600-
NEW JERSEY

CITY           SKY/WX    TMP DP  RH WIND       PRES   REMARKS
NEWARK/LIBERTY MOSUNNY   22   0  38 CALM      30.25F
TETERBORO      SUNNY     20  -2  38 CALM      30.24F
CALDWELL       SUNNY     20  -1  40 W5        30.24F WCI  13
MORRISTOWN     MOSUNNY   19   3  49 W5        30.24F WCI  13
SOMERVILLE     SUNNY     21   3  45 VRB5      30.23F WCI  15
SUSSEX         SUNNY     20   3  48 VRB6      30.17F WCI  12
ANDOVER          N/A     19   1  45 MISG      30.19F
TRENTON        SUNNY     21   1  41 NW7       30.24F WCI  12
MILLVILLE      SUNNY     22   3  44 NW5       30.29F WCI  16
ATLANTIC CITY  SUNNY     22   0  38 CALM      30.28F
WRIGHTSTOWN    SUNNY     22   0  37 N6        30.23F WCI  15
TOMS RIVER     SUNNY     21   1  42 N3        30.26F
BELMAR         SUNNY     21   0  39 NW8       30.24F WCI  12
$$

PAZ047>061-062-071-121600-
EASTERN PENNSYLVANIA

CITY           SKY/WX    TMP DP  RH WIND       PRES   REMARKS
PHILADELPHIA   PTSUNNY   21  -1  38 VRB3      30.29F
ALLENTOWN      SUNNY     19   3  49 SW7       30.22F WCI  10
SCRANTON       CLOUDY    14   3  61 SW6       30.13F WCI   5
$$

CTZ002-004>006-009-010-012-RIZ004-006-007-MAZ004-011-015-121600-
SOUTHERN NEW ENGLAND
 IN CT

CITY           SKY/WX    TMP DP  RH WIND       PRES   REMARKS
BRADLEY INTL   PTSUNNY   15   1  53 SW9       30.19F WCI   3
HARTFORD       SUNNY     17   2  51 VRB3      30.22F
DANBURY        SUNNY     16   0  49 W8        30.20F WCI   5
WTRBRY/OXFORD  NOT AVBL
BRIDGEPORT     SUNNY     21   3  45 W7        30.24F WCI  12
MERIDEN        SUNNY     18   1  47 VRB3      30.22F
NEW HAVEN      MOSUNNY   19   3  49 W6        30.23F WCI  11
CHESTER        FAIR      18   1  49 NW7       30.20F WCI   8
GROTON         SUNNY     19   2  47 W9        30.23F WCI   8
WILLIMANTIC    SUNNY     16   0  49 SW6       30.21S WCI   7

 IN RI

CITY           SKY/WX    TMP DP  RH WIND       PRES   REMARKS
PROVIDENCE     MOSUNNY   16   0  49 W7        30.23S WCI   6
BLOCK ISLAND   SUNNY     21   7  53 W8G17     30.21R WCI  12
WESTERLY       SUNNY     19   1  45 W10       30.23F WCI   7

 IN MA

CITY           SKY/WX    TMP DP  RH WIND       PRES   REMARKS
BOSTON         MOSUNNY   14  -5  42 NW10      30.18F WCI   1
WORCESTER      SUNNY     10  -2  58 W16G26    30.08F WCI  -7
WESTFIELD      SUNNY     13   0  56 S7        30.18F WCI   3
PROVINCETOWN   PTSUNNY   16   6  65 W15       30.20S WCI   1
NANTUCKET      SUNNY     19   4  51 W17       30.21F WCI   4
$$

ANZ330-335-338-340-345-350-353-355-121600-
COASTAL MARINE OBSERVATIONS


STATION/POSITION TIME  SKY/WX   TEMP    WIND        PRES    VSBY  WAVE
                                AIR SEA DIR/SP/G                  HT/PER
                 (UTC)          (F)     (DEG/KT/KT) (MB)    (MI)  (FT/S)
NY HARB ENTRANCE 1350            21 42  310/ 10/ 12 1024.8          2/ 3
4S FIRE IS       NOT AVBL
20S FIRE ISLAND  1350            21 42  320/ 10/ 14 1024.9          3/ 5
GREAT SOUTH BAY  NOT AVBL
23SW MTP         1450            21 45  290/  6/ 12 1024.0          3/ 6
HUDSON CANYON    1350            25 48              1024.6          6/ 6
KINGS POINT      1400            18 35  310/  7/ 10 1024.5
EXECUTION ROCKS  NOT AVBL
CENTRAL LI SOUND 1415            20     270/ 10/ 14   N/A           2/ 4
EASTERN LI SOUND 1400            20 41  260/ 14/ 19   N/A
ROBBINS REEF     1400            17     280/  7/  9 1024.4
$$


>>>>>>>>>>>>>>>>>>>>>>>>>>>> KEY <<<<<<<<<<<<<<<<<<<<<<<<<<<
>                                                          <
>     SKY/WX - SKY CONDITION/PRESENT WEATHER               <
>     TMP    - TEMPERATURE IN FAHRENHEIT                   <
>     DP     - DEWPOINT IN FAHRENHEIT                      <
>     RH     - RELATIVE HUMIDITY IN PERCENT                <
>     WIND   - DIRECTION AND SPEED IN MPH                  <
>     PRES   - MEAN SEA LEVEL PRESSURE IN INCHES OF HG     <
>     WCI    - WIND CHILL INDEX                            <
>     VSB    - VISIBILITY IN MILES                         <
>     HX     - HEAT INDEX                                  <
>     TC     - TEMPERATURE IN CELSIUS                      <
>     VRB    - VARIABLE WIND DIRECTION                     <
>                                                          <
>>>>>>>>>>>>>>>>>>>>>>>>>>>> KEY <<<<<<<<<<<<<<<<<<<<<<<<<<<






USA.gov is the U.S. government's official web portal to all federal, state and local government web resources and services.